WMT7978 LUKK-LZIB

Flight info

Callsign WMT7978
Flight time 1h 13m
Altitude 38000
Route NUNTA2K/08 NUNTA DCT REPTO DCT PITOK DCT KALIF DCT SLC/N0368F240 N190 NIT
Aircraft A320/M-SDE1E2E3FGIJ1J4RWXY/LB1

Departure

Time 2026-05-04 18:05
Airport Chişinău International Airport (LUKK)

Arrival

Time 2026-05-04 19:18
Airport M. R. Štefánik Airport (LZIB)
Time Latitude Longitude Altitude Speed Heading
2026-05-04 18:04 47.06650 28.54494 16957 ft 377 kts 278°
2026-05-04 18:05 47.06875 28.50646 17566 ft 380 kts 278°
2026-05-04 18:05 47.07100 28.46772 18172 ft 384 kts 278°
2026-05-04 18:05 47.07323 28.42853 18729 ft 386 kts 278°
2026-05-04 18:05 47.07543 28.38913 19275 ft 389 kts 277°
2026-05-04 18:06 47.07991 28.30952 20388 ft 394 kts 277°
2026-05-04 18:06 47.08215 28.26937 20921 ft 396 kts 277°
2026-05-04 18:06 47.08439 28.22899 21414 ft 399 kts 277°
2026-05-04 18:07 47.08661 28.18837 21922 ft 400 kts 277°
2026-05-04 18:07 47.08884 28.14745 22425 ft 403 kts 277°
2026-05-04 18:07 47.09106 28.10639 22936 ft 405 kts 277°
2026-05-04 18:07 47.09328 28.06502 23447 ft 408 kts 277°
2026-05-04 18:08 47.09550 28.02345 23894 ft 410 kts 277°
2026-05-04 18:08 47.09772 27.98168 24317 ft 412 kts 276°
2026-05-04 18:08 47.09989 27.94025 24733 ft 413 kts 276°
2026-05-04 18:08 47.10209 27.89808 25144 ft 415 kts 276°
2026-05-04 18:09 47.11101 27.81443 25951 ft 417 kts 285°
2026-05-04 18:09 47.12106 27.75086 26512 ft 421 kts 285°
2026-05-04 18:10 47.12731 27.71073 26897 ft 423 kts 285°
2026-05-04 18:10 47.13384 27.66848 27280 ft 426 kts 285°
2026-05-04 18:10 47.14035 27.62595 27660 ft 428 kts 284°
2026-05-04 18:10 47.14686 27.58319 28036 ft 430 kts 284°
2026-05-04 18:11 47.15340 27.54024 28420 ft 432 kts 284°
2026-05-04 18:11 47.16001 27.49706 28796 ft 435 kts 284°
2026-05-04 18:11 47.16668 27.45360 29171 ft 437 kts 284°
2026-05-04 18:11 47.17337 27.40985 29552 ft 439 kts 284°
2026-05-04 18:12 47.18004 27.36594 29902 ft 442 kts 284°
2026-05-04 18:12 47.18552 27.32969 30192 ft 444 kts 284°
2026-05-04 18:12 47.19221 27.28534 30514 ft 446 kts 284°
2026-05-04 18:12 47.19892 27.24079 30840 ft 447 kts 284°
2026-05-04 18:13 47.20564 27.19608 31186 ft 448 kts 284°
2026-05-04 18:13 47.21234 27.15139 31651 ft 446 kts 284°
2026-05-04 18:13 47.22554 27.06264 32612 ft 442 kts 284°
2026-05-04 18:14 47.23208 27.01856 33084 ft 441 kts 283°
2026-05-04 18:14 47.23858 26.97455 33526 ft 440 kts 284°
2026-05-04 18:14 47.24504 26.93060 33973 ft 439 kts 283°
2026-05-04 18:15 47.25781 26.84364 34709 ft 437 kts 283°
2026-05-04 18:15 47.27058 26.75633 35381 ft 436 kts 283°
2026-05-04 18:15 47.27693 26.71275 35708 ft 435 kts 283°
2026-05-04 18:16 47.28325 26.66921 36030 ft 435 kts 283°
2026-05-04 18:16 47.28954 26.62571 36348 ft 434 kts 283°
2026-05-04 18:16 47.29581 26.58222 36641 ft 434 kts 283°
2026-05-04 18:17 47.30828 26.49541 37245 ft 433 kts 283°
2026-05-04 18:17 47.31448 26.45208 37533 ft 432 kts 283°
2026-05-04 18:17 47.32682 26.36542 38009 ft 432 kts 283°
2026-05-04 18:18 47.33297 26.32204 38047 ft 434 kts 283°
2026-05-04 18:18 47.34526 26.23494 38046 ft 434 kts 283°
2026-05-04 18:19 47.36360 26.10421 38068 ft 434 kts 283°
2026-05-04 18:19 47.37567 26.01703 38063 ft 434 kts 283°
2026-05-04 18:20 47.38773 25.92985 38075 ft 434 kts 283°
2026-05-04 18:20 47.39984 25.84246 38081 ft 435 kts 283°
2026-05-04 18:21 47.41180 25.75502 38082 ft 435 kts 283°
2026-05-04 18:21 47.42358 25.66804 38090 ft 435 kts 283°
2026-05-04 18:22 47.43532 25.58036 38095 ft 435 kts 283°
2026-05-04 18:22 47.44707 25.49269 38098 ft 435 kts 283°
2026-05-04 18:23 47.45885 25.40492 38103 ft 435 kts 283°
2026-05-04 18:23 47.47053 25.31715 38104 ft 435 kts 283°
2026-05-04 18:24 47.48208 25.22930 38114 ft 435 kts 283°
2026-05-04 18:24 47.49350 25.14143 38111 ft 435 kts 283°
2026-05-04 18:25 47.50493 25.05364 38115 ft 435 kts 283°
2026-05-04 18:25 47.51632 24.96577 38106 ft 435 kts 283°
2026-05-04 18:26 47.52764 24.87783 38116 ft 435 kts 282°
2026-05-04 18:26 47.53880 24.78990 38115 ft 435 kts 282°
2026-05-04 18:27 47.54997 24.70188 38111 ft 435 kts 282°
2026-05-04 18:27 47.56106 24.61393 38111 ft 435 kts 282°
2026-05-04 18:28 47.57214 24.52587 38104 ft 435 kts 282°
2026-05-04 18:28 47.58309 24.43782 38111 ft 435 kts 282°
2026-05-04 18:29 47.59393 24.34981 38108 ft 434 kts 282°
2026-05-04 18:29 47.60474 24.26181 38111 ft 434 kts 282°
2026-05-04 18:30 47.62081 24.12974 38102 ft 434 kts 282°
2026-05-04 18:31 47.63134 24.04230 38108 ft 434 kts 281°
2026-05-04 18:31 47.64555 23.95573 38107 ft 432 kts 288°
2026-05-04 18:32 47.66329 23.87050 38094 ft 433 kts 288°
2026-05-04 18:32 47.68090 23.78508 38087 ft 433 kts 288°
2026-05-04 18:33 47.69847 23.69971 38076 ft 433 kts 288°
2026-05-04 18:33 47.71595 23.61423 38075 ft 433 kts 288°
2026-05-04 18:34 47.73338 23.52867 38075 ft 433 kts 288°
2026-05-04 18:34 47.75074 23.44309 38074 ft 433 kts 288°
2026-05-04 18:35 47.76807 23.35744 38080 ft 433 kts 288°
2026-05-04 18:35 47.78533 23.27181 38086 ft 432 kts 288°
2026-05-04 18:36 47.80242 23.18639 37565 ft 430 kts 288°
2026-05-04 18:36 47.81093 23.14367 37023 ft 430 kts 288°
2026-05-04 18:36 47.81942 23.10093 36503 ft 431 kts 288°
2026-05-04 18:36 47.82790 23.05815 35988 ft 431 kts 289°
2026-05-04 18:37 47.83638 23.01536 35482 ft 432 kts 289°
2026-05-04 18:37 47.84488 22.97245 34982 ft 433 kts 289°
2026-05-04 18:37 47.85341 22.92941 34483 ft 433 kts 290°
2026-05-04 18:37 47.86178 22.88703 34139 ft 432 kts 290°
2026-05-04 18:38 47.87022 22.84407 34042 ft 433 kts 290°
2026-05-04 18:38 47.88715 22.75770 34067 ft 435 kts 290°
2026-05-04 18:39 47.90398 22.67131 34065 ft 435 kts 289°
2026-05-04 18:39 47.92078 22.58463 34066 ft 435 kts 289°
2026-05-04 18:40 47.93752 22.49812 34065 ft 434 kts 289°
2026-05-04 18:40 47.94856 22.40919 34064 ft 437 kts 282°
2026-05-04 18:41 47.95734 22.31939 34065 ft 438 kts 282°
2026-05-04 18:41 47.96593 22.22950 34064 ft 438 kts 282°
2026-05-04 18:42 47.97448 22.13969 34054 ft 437 kts 281°
2026-05-04 18:42 47.98304 22.04997 34061 ft 436 kts 281°
2026-05-04 18:43 47.99155 21.96037 34067 ft 436 kts 281°
2026-05-04 18:43 47.99985 21.87127 34049 ft 436 kts 281°
2026-05-04 18:44 48.00812 21.78158 34066 ft 436 kts 281°
2026-05-04 18:44 48.01635 21.69187 34054 ft 435 kts 280°
2026-05-04 18:45 48.02455 21.60240 34057 ft 435 kts 280°
2026-05-04 18:45 48.03266 21.51296 34062 ft 435 kts 280°
2026-05-04 18:46 48.04070 21.42350 34059 ft 435 kts 280°
2026-05-04 18:46 48.04867 21.33390 34060 ft 435 kts 280°
2026-05-04 18:47 48.05650 21.24440 34059 ft 435 kts 280°
2026-05-04 18:47 48.06425 21.15475 34057 ft 435 kts 280°
2026-05-04 18:48 48.07198 21.06510 34060 ft 435 kts 280°
2026-05-04 18:48 48.07961 20.97541 34064 ft 435 kts 280°
2026-05-04 18:49 48.08718 20.88572 34060 ft 435 kts 279°
2026-05-04 18:49 48.09479 20.79604 34064 ft 435 kts 279°
2026-05-04 18:50 48.10235 20.70621 34067 ft 435 kts 279°
2026-05-04 18:50 48.10964 20.61704 34062 ft 435 kts 279°
2026-05-04 18:51 48.11688 20.52712 34068 ft 435 kts 279°
2026-05-04 18:51 48.12409 20.43724 34058 ft 435 kts 278°
2026-05-04 18:52 48.13130 20.34761 33854 ft 429 kts 278°
2026-05-04 18:52 48.13480 20.30371 33579 ft 421 kts 278°
2026-05-04 18:52 48.13818 20.26067 33306 ft 413 kts 278°
2026-05-04 18:52 48.14152 20.21816 33036 ft 408 kts 278°
2026-05-04 18:53 48.14483 20.17612 32770 ft 406 kts 278°
2026-05-04 18:53 48.14809 20.13435 32505 ft 403 kts 278°
2026-05-04 18:53 48.15133 20.09272 32245 ft 401 kts 278°
2026-05-04 18:53 48.15452 20.05133 31984 ft 399 kts 278°
2026-05-04 18:54 48.15768 20.01012 31721 ft 397 kts 278°
2026-05-04 18:54 48.15977 19.98298 31552 ft 396 kts 278°
2026-05-04 18:54 48.16288 19.94212 31299 ft 394 kts 278°
2026-05-04 18:54 48.16594 19.90140 31047 ft 393 kts 278°
2026-05-04 18:55 48.16897 19.86082 30800 ft 391 kts 278°
2026-05-04 18:55 48.17496 19.78018 30307 ft 388 kts 278°
2026-05-04 18:55 48.17793 19.74006 30041 ft 387 kts 278°
2026-05-04 18:56 48.18090 19.70005 29767 ft 385 kts 278°
2026-05-04 18:56 48.18385 19.66024 29484 ft 384 kts 278°
2026-05-04 18:56 48.18678 19.62052 29201 ft 382 kts 277°
2026-05-04 18:56 48.18967 19.58113 28921 ft 380 kts 277°
2026-05-04 18:57 48.19254 19.54183 28647 ft 379 kts 277°
2026-05-04 18:57 48.19538 19.50265 28375 ft 377 kts 277°
2026-05-04 18:57 48.19818 19.46361 28106 ft 375 kts 277°
2026-05-04 18:57 48.20093 19.42482 27822 ft 374 kts 277°
2026-05-04 18:58 48.20362 19.38597 26884 ft 377 kts 276°
2026-05-04 18:58 48.20624 19.34678 25876 ft 379 kts 276°
2026-05-04 18:58 48.20883 19.30728 24896 ft 381 kts 276°
2026-05-04 18:58 48.21137 19.26808 24300 ft 372 kts 275°
2026-05-04 18:59 48.21379 19.23015 23889 ft 359 kts 275°
2026-05-04 18:59 48.21609 19.19364 23455 ft 346 kts 275°
2026-05-04 18:59 48.21833 19.15816 23037 ft 339 kts 275°
2026-05-04 18:59 48.22054 19.12317 22635 ft 336 kts 275°
2026-05-04 19:00 48.22274 19.08832 22237 ft 334 kts 275°
2026-05-04 19:00 48.22490 19.05381 21848 ft 331 kts 275°
2026-05-04 19:00 48.22704 19.01949 21457 ft 329 kts 275°
2026-05-04 19:00 48.22918 18.98545 21068 ft 327 kts 275°
2026-05-04 19:01 48.23127 18.95205 20685 ft 325 kts 275°
2026-05-04 19:01 48.23337 18.91836 20286 ft 324 kts 275°
2026-05-04 19:01 48.23544 18.88471 19911 ft 323 kts 274°
2026-05-04 19:01 48.23747 18.85122 19525 ft 322 kts 274°
2026-05-04 19:02 48.23948 18.81776 19141 ft 321 kts 274°
2026-05-04 19:02 48.24146 18.78442 18746 ft 321 kts 274°
2026-05-04 19:02 48.24343 18.75114 18358 ft 320 kts 274°
2026-05-04 19:02 48.24542 18.71785 17941 ft 320 kts 273°
2026-05-04 19:03 48.24738 18.68478 17553 ft 318 kts 273°
2026-05-04 19:03 48.24933 18.65185 17172 ft 316 kts 273°
2026-05-04 19:03 48.25127 18.61906 16787 ft 314 kts 273°
2026-05-04 19:03 48.25319 18.58650 16411 ft 313 kts 273°
2026-05-04 19:04 48.25509 18.55404 16056 ft 311 kts 273°
2026-05-04 19:04 48.25696 18.52179 15694 ft 309 kts 273°
2026-05-04 19:04 48.25884 18.48971 15333 ft 308 kts 273°
2026-05-04 19:04 48.26070 18.45774 14959 ft 308 kts 273°
2026-05-04 19:05 48.26255 18.42575 14589 ft 307 kts 272°
2026-05-04 19:05 48.26437 18.39386 14220 ft 307 kts 272°
2026-05-04 19:05 48.26617 18.36195 13851 ft 307 kts 272°
2026-05-04 19:05 48.26796 18.33004 13452 ft 306 kts 272°
2026-05-04 19:06 48.26973 18.29831 13082 ft 304 kts 272°
2026-05-04 19:06 48.27149 18.26677 12709 ft 303 kts 272°
2026-05-04 19:06 48.27322 18.23529 12340 ft 302 kts 272°
2026-05-04 19:06 48.27495 18.20404 11976 ft 300 kts 272°
2026-05-04 19:07 48.27663 18.17313 11615 ft 299 kts 272°
2026-05-04 19:07 48.27831 18.14266 11255 ft 298 kts 272°
2026-05-04 19:07 48.28006 18.11083 10878 ft 297 kts 272°
2026-05-04 19:07 48.28173 18.07998 10518 ft 296 kts 272°
2026-05-04 19:08 48.28339 18.04917 10156 ft 295 kts 272°
2026-05-04 19:08 48.28503 18.01855 9887 ft 291 kts 272°
2026-05-04 19:08 48.28663 17.98896 9629 ft 286 kts 272°
2026-05-04 19:08 48.28824 17.95914 9249 ft 286 kts 272°
2026-05-04 19:09 48.28982 17.92940 8870 ft 285 kts 272°
2026-05-04 19:09 48.29139 17.89978 8522 ft 284 kts 272°
2026-05-04 19:09 48.29296 17.87031 8183 ft 283 kts 272°
2026-05-04 19:09 48.29448 17.84116 8027 ft 277 kts 272°
2026-05-04 19:10 48.29597 17.81238 7983 ft 276 kts 271°
2026-05-04 19:10 48.29743 17.78372 7656 ft 275 kts 271°
2026-05-04 19:10 48.29889 17.75515 7334 ft 274 kts 271°
2026-05-04 19:10 48.30034 17.72688 6893 ft 270 kts 271°
2026-05-04 19:11 48.30179 17.69887 6325 ft 268 kts 271°
2026-05-04 19:11 48.30321 17.67106 5748 ft 266 kts 271°
2026-05-04 19:11 48.30460 17.64354 5180 ft 263 kts 270°
2026-05-04 19:11 48.30599 17.61602 4775 ft 264 kts 270°
2026-05-04 19:12 48.30737 17.58861 4463 ft 262 kts 270°
2026-05-04 19:12 48.31002 17.53425 3831 ft 260 kts 269°
2026-05-04 19:12 48.31132 17.50714 3497 ft 260 kts 269°
2026-05-04 19:13 48.31263 17.48018 3188 ft 258 kts 269°
2026-05-04 19:13 48.31392 17.45335 2859 ft 257 kts 267°
2026-05-04 19:13 48.31165 17.42769 2704 ft 241 kts 246°
2026-05-04 19:13 48.30382 17.40663 2602 ft 224 kts 225°
2026-05-04 19:14 48.29318 17.39066 2509 ft 212 kts 218°
2026-05-04 19:14 48.28286 17.37572 2507 ft 199 kts 219°
2026-05-04 19:14 48.27327 17.36180 2510 ft 185 kts 219°
2026-05-04 19:14 48.26432 17.34883 2516 ft 175 kts 218°
2026-05-04 19:15 48.25567 17.33633 2455 ft 171 kts 218°
2026-05-04 19:15 48.24717 17.32404 2259 ft 169 kts 218°
2026-05-04 19:15 48.23873 17.31185 2049 ft 167 kts 217°
2026-05-04 19:15 48.23036 17.29976 1836 ft 167 kts 217°
2026-05-04 19:16 48.22243 17.28825 1642 ft 150 kts 217°
2026-05-04 19:16 48.21520 17.27780 1433 ft 142 kts 218°
2026-05-04 19:16 48.20811 17.26760 1214 ft 140 kts 220°
2026-05-04 19:16 48.20103 17.25744 1011 ft 144 kts 220°
2026-05-04 19:17 48.19371 17.24703 829 ft 148 kts 223°
2026-05-04 19:17 48.18641 17.23610 651 ft 150 kts 223°
2026-05-04 19:17 48.17884 17.22549 456 ft 150 kts 222°
2026-05-04 19:17 48.17226 17.21590 429 ft 109 kts 224°
2026-05-04 19:18 48.16808 17.20994 416 ft 58 kts 224°
2026-05-04 19:18 48.16598 17.20687 430 ft 35 kts 224°
2026-05-04 19:18 48.16584 17.20546 431 ft 14 kts 309°
2026-05-04 19:18 48.16655 17.20445 432 ft 6 kts 314°
2026-05-04 19:19 48.16658 17.20440 425 ft 0 kts 314°
2026-05-04 19:19 48.16680 17.20406 425 ft 10 kts 315°
2026-05-04 19:20 48.16741 17.20318 425 ft 14 kts 315°
2026-05-04 19:20 48.16810 17.20215 439 ft 14 kts 314°
2026-05-04 19:20 48.16872 17.20152 437 ft 9 kts 13°
2026-05-04 19:20 48.16908 17.20196 432 ft 2 kts 36°
2026-05-04 19:21 48.16922 17.20185 435 ft 4 kts 325°
2026-05-04 19:21 48.16944 17.20152 434 ft 3 kts 315°
2026-05-04 19:21 48.16951 17.20141 433 ft 0 kts 314°
2026-05-04 19:21 48.16953 17.20138 433 ft 0 kts 314°
2026-05-04 19:22 48.16953 17.20139 433 ft 0 kts 314°